User: anonymous   Login
Location: *
(2.5500°S, 65.9667°W)
Time: 15:16:12
(UTC+00:00)
Language:

Cosmos 1892 - Orbit

View from above orbital plane
View from above orbital plane
View from above satellite
View from above satellite

Ground track
Ground track

The orbit data is extracted from the following two-line orbital elements,

1 18421U 87088A   22022.86698932  .00001501  00000-0  71618-4 0  9990
2 18421  82.4983  54.7693 0014327 188.6842 171.4146 15.18235070873183
Epoch (UTC): 22 January 2022 20:48:27
Eccentricity: 0.0014327
inclination: 82.4983°
perigee height: 501 km
apogee height: 521 km
right ascension of ascending node: 54.7693°
argument of perigee: 188.6842°
revolutions per day: 15.18235070
mean anomaly at epoch: 171.4146°
orbit number at epoch: 87318

The dashed part of the orbit path shows where the satellite is in the earth's shadow,  

DLR